When you browse on this site, cookies collect data to enhance your experience and personalize the content and advertising you see.
Visit our Privacy Policy to learn more. By continuing to use the site, you agree to this use of cookies and data.
  • In United Kingdom
  • List of Countries
  • For 7 days
  • Water Temperature
  • Satellite Maps
  • Weather Map
  • Weather Widgets
  • user-avatar
    Login

    Hourly Weather Phenian

    Today, 20 April, Saturday

    Time Temperature Precipitation Wind Pressure Humidity
    00:00 +12°C° 0 mm 1 mps 760 mmHg 50%
    01:00 +11°C° 0 mm 0 mps 760 mmHg 52%
    02:00 +10°C° 0 mm 0 mps 760 mmHg 55%
    03:00 +11°C° 0 mm 1 mps 760 mmHg 57%
    04:00 +11°C° 0 mm 1 mps 759 mmHg 60%
    05:00 +11°C° 0 mm 1 mps 759 mmHg 63%
    06:00 +12°C° 0 mm 2 mps 759 mmHg 63%
    07:00 +13°C° 0 mm 3 mps 759 mmHg 64%
    08:00 +16°C° 0 mm 3 mps 759 mmHg 64%
    09:00 +16°C° 0 mm 3 mps 759 mmHg 62%
    10:00 +17°C° 0 mm 3 mps 759 mmHg 60%
    11:00 +18°C° 0 mm 3 mps 759 mmHg 58%
    12:00 +17°C° 0 mm 3 mps 759 mmHg 61%
    13:00 +16°C° 0 mm 3 mps 759 mmHg 65%
    14:00 +13°C° 0 mm 3 mps 759 mmHg 72%
    15:00 +13°C° 0.8 mm 2 mps 759 mmHg 76%
    16:00 +13°C° 0.8 mm 1 mps 759 mmHg 80%
    17:00 +11°C° 0.8 mm 0 mps 759 mmHg 84%
    18:00 +11°C° 0.7 mm 0 mps 759 mmHg 85%
    19:00 +11°C° 0.7 mm 0 mps 759 mmHg 86%
    20:00 +11°C° 0 mm 0 mps 759 mmHg 90%
    21:00 +12°C° 0.1 mm 1 mps 759 mmHg 90%
    22:00 +12°C° 0.1 mm 1 mps 759 mmHg 90%
    23:00 +12°C° 0.1 mm 1 mps 759 mmHg 90%

    Tomorrow, 21 April, Sunday

    Time Temperature Precipitation Wind Pressure Humidity
    00:00 +11°C° 0 mm 1 mps 759 mmHg 91%
    01:00 +11°C° 0 mm 1 mps 758 mmHg 92%
    02:00 +10°C° 0 mm 1 mps 758 mmHg 93%
    03:00 +10°C° 0 mm 1 mps 758 mmHg 93%
    04:00 +10°C° 0 mm 1 mps 758 mmHg 93%
    05:00 +8°C° 0 mm 0 mps 758 mmHg 93%
    06:00 +11°C° 0 mm 1 mps 758 mmHg 86%
    07:00 +12°C° 0 mm 1 mps 759 mmHg 79%
    08:00 +13°C° 0 mm 2 mps 759 mmHg 71%
    09:00 +15°C° 0 mm 2 mps 759 mmHg 65%
    10:00 +16°C° 0 mm 2 mps 759 mmHg 58%
    11:00 +18°C° 0 mm 2 mps 759 mmHg 51%
    12:00 +19°C° 0 mm 3 mps 758 mmHg 49%
    13:00 +19°C° 0 mm 3 mps 758 mmHg 46%
    14:00 +20°C° 0 mm 3 mps 758 mmHg 44%
    15:00 +19°C° 0 mm 3 mps 757 mmHg 46%
    16:00 +19°C° 0 mm 3 mps 757 mmHg 47%
    17:00 +18°C° 0 mm 3 mps 757 mmHg 49%
    18:00 +16°C° 0 mm 2 mps 758 mmHg 53%
    19:00 +15°C° 0 mm 2 mps 758 mmHg 57%
    20:00 +13°C° 0 mm 1 mps 759 mmHg 60%
    21:00 +13°C° 0 mm 1 mps 759 mmHg 60%
    22:00 +12°C° 0 mm 1 mps 759 mmHg 61%
    23:00 +12°C° 0 mm 1 mps 760 mmHg 61%

    Day after tomorrow, 22 April, Monday

    Time Temperature Precipitation Wind Pressure Humidity
    00:00 +11°C° 0 mm 1 mps 760 mmHg 61%
    01:00 +10°C° 0 mm 0 mps 760 mmHg 61%
    02:00 +10°C° 0 mm 0 mps 760 mmHg 62%
    03:00 +9°C° 0 mm 0 mps 760 mmHg 63%
    04:00 +9°C° 0 mm 0 mps 760 mmHg 64%
    05:00 +9°C° 0 mm 0 mps 760 mmHg 65%
    06:00 +12°C° 0 mm 1 mps 761 mmHg 60%
    07:00 +14°C° 0 mm 1 mps 761 mmHg 54%
    08:00 +16°C° 0 mm 1 mps 761 mmHg 49%
    09:00 +19°C° 0 mm 1 mps 761 mmHg 44%
    10:00 +21°C° 0 mm 2 mps 761 mmHg 38%
    11:00 +24°C° 0 mm 2 mps 761 mmHg 33%
    12:00 +25°C° 0 mm 2 mps 760 mmHg 31%
    13:00 +26°C° 0 mm 2 mps 760 mmHg 29%
    14:00 +27°C° 0 mm 3 mps 760 mmHg 27%
    15:00 +26°C° 0 mm 3 mps 759 mmHg 30%
    16:00 +24°C° 0 mm 3 mps 759 mmHg 33%
    17:00 +22°C° 0 mm 3 mps 759 mmHg 36%
    18:00 +20°C° 0 mm 2 mps 760 mmHg 40%
    19:00 +18°C° 0 mm 2 mps 760 mmHg 44%
    20:00 +16°C° 0 mm 1 mps 761 mmHg 47%
    21:00 +16°C° 0 mm 1 mps 761 mmHg 48%
    22:00 +15°C° 0 mm 1 mps 761 mmHg 50%
    23:00 +15°C° 0 mm 1 mps 761 mmHg 51%

    23 April, Tuesday

    Time Temperature Precipitation Wind Pressure Humidity
    00:00 +14°C° 0 mm 1 mps 761 mmHg 53%
    01:00 +14°C° 0 mm 1 mps 760 mmHg 55%
    02:00 +14°C° 0 mm 1 mps 760 mmHg 58%
    03:00 +14°C° 0 mm 1 mps 760 mmHg 60%
    04:00 +13°C° 0 mm 1 mps 760 mmHg 62%
    05:00 +12°C° 0 mm 0 mps 761 mmHg 64%
    06:00 +15°C° 0 mm 1 mps 761 mmHg 60%
    07:00 +16°C° 0 mm 1 mps 761 mmHg 56%
    08:00 +19°C° 0 mm 1 mps 761 mmHg 52%
    09:00 +20°C° 0 mm 1 mps 760 mmHg 51%
    10:00 +21°C° 0 mm 2 mps 760 mmHg 50%
    11:00 +22°C° 0 mm 3 mps 760 mmHg 49%
    12:00 +24°C° 0 mm 3 mps 760 mmHg 49%
    13:00 +25°C° 0 mm 3 mps 759 mmHg 49%
    14:00 +25°C° 0 mm 4 mps 759 mmHg 49%
    15:00 +23°C° 0 mm 4 mps 758 mmHg 53%
    16:00 +22°C° 0 mm 3 mps 758 mmHg 57%
    17:00 +21°C° 0 mm 3 mps 758 mmHg 62%
    18:00 +19°C° 0 mm 3 mps 758 mmHg 67%
    19:00 +18°C° 0 mm 2 mps 758 mmHg 72%
    20:00 +18°C° 0 mm 1 mps 759 mmHg 77%
    21:00 +16°C° 0 mm 1 mps 758 mmHg 78%
    22:00 +16°C° 0 mm 1 mps 758 mmHg 80%
    23:00 +15°C° 0 mm 1 mps 758 mmHg 81%

    24 April, Wednesday

    Time Temperature Precipitation Wind Pressure Humidity
    00:00 +15°C° 0 mm 1 mps 758 mmHg 81%
    01:00 +15°C° 0 mm 1 mps 758 mmHg 82%
    02:00 +15°C° 0 mm 1 mps 758 mmHg 82%
    03:00 +15°C° 0 mm 1 mps 757 mmHg 83%
    04:00 +15°C° 0 mm 1 mps 757 mmHg 83%
    05:00 +15°C° 0 mm 1 mps 757 mmHg 84%
    06:00 +16°C° 0 mm 1 mps 757 mmHg 79%
    07:00 +18°C° 0 mm 1 mps 756 mmHg 75%
    08:00 +19°C° 0 mm 1 mps 756 mmHg 70%
    09:00 +20°C° 0 mm 2 mps 756 mmHg 63%
    10:00 +22°C° 0 mm 4 mps 756 mmHg 55%
    11:00 +25°C° 0 mm 5 mps 756 mmHg 48%
    12:00 +25°C° 0 mm 5 mps 756 mmHg 44%
    13:00 +25°C° 0 mm 5 mps 755 mmHg 41%
    14:00 +26°C° 0 mm 5 mps 755 mmHg 38%
    15:00 +25°C° 0 mm 5 mps 755 mmHg 37%
    16:00 +23°C° 0 mm 5 mps 755 mmHg 35%
    17:00 +22°C° 0 mm 5 mps 755 mmHg 34%
    18:00 +20°C° 0 mm 5 mps 755 mmHg 35%
    19:00 +18°C° 0 mm 4 mps 756 mmHg 36%
    20:00 +15°C° 0 mm 4 mps 756 mmHg 37%
    21:00 +14°C° 0 mm 3 mps 756 mmHg 38%
    22:00 +14°C° 0 mm 3 mps 756 mmHg 39%
    23:00 +13°C° 0 mm 3 mps 756 mmHg 39%

    25 April, Thursday

    Time Temperature Precipitation Wind Pressure Humidity
    00:00 +13°C° 0 mm 2 mps 756 mmHg 40%
    01:00 +13°C° 0 mm 2 mps 756 mmHg 40%
    02:00 +12°C° 0 mm 2 mps 755 mmHg 41%
    03:00 +12°C° 0 mm 2 mps 756 mmHg 42%
    04:00 +12°C° 0 mm 2 mps 756 mmHg 43%
    05:00 +11°C° 0 mm 1 mps 756 mmHg 45%
    06:00 +12°C° 0.1 mm 2 mps 756 mmHg 45%
    07:00 +11°C° 0.1 mm 3 mps 757 mmHg 46%
    08:00 +11°C° 0.1 mm 4 mps 757 mmHg 47%
    09:00 +12°C° 0 mm 4 mps 757 mmHg 45%
    10:00 +12°C° 0 mm 4 mps 757 mmHg 43%
    11:00 +13°C° 0 mm 4 mps 757 mmHg 40%
    12:00 +13°C° 0 mm 3 mps 757 mmHg 40%
    13:00 +13°C° 0 mm 3 mps 757 mmHg 40%
    14:00 +14°C° 0 mm 3 mps 757 mmHg 40%
    15:00 +13°C° 0 mm 3 mps 757 mmHg 42%
    16:00 +13°C° 0 mm 4 mps 757 mmHg 44%
    17:00 +12°C° 0 mm 4 mps 757 mmHg 46%
    18:00 +12°C° 0 mm 4 mps 757 mmHg 48%
    19:00 +11°C° 0 mm 4 mps 757 mmHg 50%
    20:00 +11°C° 0 mm 3 mps 758 mmHg 52%
    21:00 +10°C° 0 mm 3 mps 758 mmHg 54%
    22:00 +10°C° 0 mm 3 mps 758 mmHg 57%
    23:00 +9°C° 0 mm 2 mps 758 mmHg 60%
    Show more